Location: Unspecified
(0.0000°N, 0.0000°E)
Time: 04:28:12
(UTC+00:00)

S-56A Canister/Altair - Visible Passes

Search period start: 05 December 2016 00:00
Search period end: 15 December 2016 00:00
Orbit: 639 x 2495 km, 38.9° (Epoch: 02 December)

Date Brightness Start Highest point End Pass type
(mag) Time Alt. Az. Time Alt. Az. Time Alt. Az.
05 Dec 10.9 01:16:09 30° E 01:16:09 30° E 01:22:33 10° ESE visible
05 Dec 9.8 03:13:36 61° W 03:16:27 71° SW 03:28:56 10° SE visible
05 Dec 10.8 05:13:24 10° W 05:22:43 21° SW 05:30:30 10° S visible
06 Dec 11.3 00:45:30 20° E 00:45:30 20° E 00:49:05 10° ESE visible
06 Dec 9.7 02:42:57 79° SW 02:43:10 80° SW 02:56:20 10° SE visible
06 Dec 10.7 04:40:24 13° W 04:49:38 26° SW 04:58:42 10° S visible
07 Dec 11.6 00:14:48 11° E 00:14:48 11° E 00:15:22 10° E visible
07 Dec 9.9 02:12:15 71° SE 02:12:15 71° SE 02:23:35 10° SE visible
07 Dec 10.6 04:09:40 21° W 04:16:31 30° SW 04:26:41 10° SSE visible
08 Dec 10.3 01:41:28 52° ESE 01:41:28 52° ESE 01:50:42 10° SE visible
08 Dec 10.5 03:38:54 30° WSW 03:43:18 36° SW 03:54:29 10° SSE visible
09 Dec 10.7 01:10:37 38° ESE 01:10:37 38° ESE 01:17:40 10° SE visible
09 Dec 10.3 03:08:02 40° WSW 03:10:03 41° SW 03:22:09 10° SSE visible
10 Dec 11.1 00:39:41 26° ESE 00:39:41 26° ESE 00:44:29 10° ESE visible
10 Dec 10.3 02:37:06 47° SW 02:37:06 47° SW 02:49:40 10° SSE visible
10 Dec 11.3 04:39:00 10° WSW 04:44:26 13° SW 04:49:28 10° S visible
11 Dec 11.4 00:08:41 17° ESE 00:08:41 17° ESE 00:11:08 10° ESE visible
11 Dec 10.3 02:06:06 49° SSW 02:06:06 49° SSW 02:17:02 10° SSE visible
11 Dec 11.2 04:03:31 10° WSW 04:11:06 16° SW 04:18:15 10° S visible
11 Dec 11.7 23:37:36 10° ESE 23:37:36 10° ESE 23:37:37 10° ESE visible
12 Dec 10.5 01:35:01 45° S 01:35:01 45° S 01:44:18 10° SE visible
12 Dec 11.2 03:32:25 16° WSW 03:37:44 19° SW 03:46:27 10° S visible
13 Dec 10.7 01:03:51 38° SSE 01:03:51 38° SSE 01:11:25 10° SE visible
13 Dec 11.0 03:01:15 22° SW 03:04:20 23° SW 03:14:21 10° S visible
14 Dec 11.0 00:32:37 30° SE 00:32:37 30° SE 00:38:23 10° SE visible
14 Dec 10.9 02:30:01 26° SW 02:30:55 27° SW 02:42:02 10° SSE visible
